Flag for Ireland Weather past 2 weeks in Dublin, Ireland

Now
50 °F

Passing clouds.


Feels Like: 50 °F
Forecast: 51 / 69 °F
Wind: No wind

Location: Dublin Airport

Current Time: Sep 3, 2014 at 3:46:46 AM

Latest Report: Sep 3, 2014 at 3:00 AM


Visibility: N/A

Pressure: 30.21 "Hg

Humidity: 100%

Dew point: 50 °F

Location of DublinLocation

Historic Weather in Dublin — Graph

°F

Dublin temperature yesterday

Maximum temperature yesterday: 63 °F (at 2:30 PM)
Minimum temperature yesterday: 48 °F (at 11:00 PM)
Average temperature yesterday: 57 °F

Past Weeks' High & Low Weather Summary

 TemperatureHumidityPressure
High68 °F (Aug 31, 4:30 PM)100% (Aug 19, 6:30 AM)30.24 "Hg (Aug 19, 6:30 AM)
Low37 °F (Aug 24, 3:00 AM)49% (Aug 23, 3:00 PM)29.47 "Hg (Aug 25, 6:30 PM)
Average55 °F83%29.92 "Hg
* Reported Aug 19 2:00 AM — Sep 3 2:30 AM, Dublin, Weather by CustomWeather, © 2014

Note: Actual official high and low records may vary slightly from our data, if they occured in-between our weather recording intervals... More about our weather records

Advertising

Dublin weather history for previous 24 hours

 ConditionsComfort  
Time TempWeatherWind HumidityBarometerVisibility
2:30 AM
Sep 3
46 °FPassing clouds.No wind100%30.21 "HgN/A
2:00 AM45 °FFog.No wind100%30.21 "HgN/A
1:30 AM45 °FFog.No wind100%30.21 "HgN/A
1:00 AM46 °FFog.1 mph100%30.21 "HgN/A
12:30 AM46 °FPassing clouds.No wind100%30.21 "HgN/A
12:00 AM48 °FClear.3 mph100%30.21 "Hg10 mi
11:30 PM
Sep 2
48 °FClear.3 mph100%30.21 "Hg10 mi
11:00 PM48 °FClear.5 mph94%30.21 "Hg10 mi
10:30 PM50 °FPassing clouds.5 mph94%30.21 "HgN/A
10:00 PM50 °FPassing clouds.5 mph94%30.21 "HgN/A
9:30 PM52 °FPassing clouds.5 mph100%30.21 "HgN/A
9:00 PM52 °FPassing clouds.6 mph94%30.21 "HgN/A
8:30 PM52 °FPassing clouds.6 mph94%30.21 "HgN/A
8:00 PM55 °FPassing clouds.7 mph94%30.21 "HgN/A
7:30 PM55 °FScattered clouds.8 mph88%30.21 "HgN/A
7:00 PM57 °FScattered clouds.8 mph82%30.21 "HgN/A
6:30 PM59 °FPartly sunny.7 mph77%30.21 "HgN/A
6:00 PM59 °FPartly sunny.9 mph77%30.21 "HgN/A
5:30 PM59 °FPartly sunny.8 mph77%30.21 "HgN/A
5:00 PM59 °FPartly sunny.9 mph77%30.21 "HgN/A
4:30 PM61 °FPartly sunny.10 mph72%30.21 "HgN/A
4:00 PM61 °FPartly sunny.9 mph72%30.21 "HgN/A
3:30 PM63 °FPartly sunny.9 mph59%30.24 "HgN/A
3:00 PM61 °FPartly sunny.9 mph68%30.24 "HgN/A
2:30 PM63 °FPartly sunny.7 mph59%30.24 "HgN/A
2:00 PM61 °FPartly sunny.7 mph68%30.24 "HgN/A
1:30 PM61 °FPartly sunny.5 mph63%30.24 "HgN/A
1:00 PM61 °FPartly sunny.5 mph68%30.24 "HgN/A
12:30 PM61 °FPartly sunny.7 mph63%30.24 "HgN/A
12:00 PM61 °FPartly sunny.6 mph63%30.24 "HgN/A
11:30 AM61 °FPartly sunny.6 mph59%30.24 "HgN/A
11:00 AM61 °FPartly sunny.5 mph63%30.24 "HgN/A
10:30 AM61 °FPartly sunny.5 mph68%30.24 "HgN/A
10:00 AM59 °FPartly sunny.3 mph77%30.24 "HgN/A
9:30 AM57 °FPartly sunny.2 mph82%30.24 "HgN/A
9:00 AM57 °FPartly sunny.3 mph82%30.24 "HgN/A
8:30 AM57 °FPartly sunny.2 mph82%30.24 "HgN/A
8:00 AM55 °FPartly sunny.2 mph88%30.24 "HgN/A
7:30 AM55 °FPassing clouds.3 mph88%30.24 "HgN/A
7:00 AM55 °FPassing clouds.5 mph88%30.24 "HgN/A
6:30 AM55 °FPassing clouds.No wind88%30.24 "HgN/A
6:00 AM55 °FPassing clouds.No wind88%30.24 "HgN/A
5:30 AM55 °FOvercast.No wind82%30.24 "HgN/A
5:00 AM57 °FOvercast.1 mph77%30.24 "HgN/A
4:30 AM55 °FOvercast.No wind88%30.24 "HgN/A
4:00 AM55 °FOvercast.No wind82%30.24 "HgN/A
3:30 AM55 °FPassing clouds.No wind88%30.24 "HgN/A
3:00 AM55 °FPassing clouds.2 mph82%30.24 "HgN/A
Weather by CustomWeather, © 2014

See weather overviewHow to use our weather pages